User: anonymous   Login
Location: Dumpton Point
(51.3500°N, 1.4433°E)
Time: 23:07:20
(UTC+00:00)
Language:

IRIDIUM 33 DEB - Orbit

View from above orbital plane
View from above orbital plane
View from above satellite
View from above satellite

Ground track
Ground track

The orbit data is extracted from the following two-line orbital elements,

1 35732U 97051RK  22221.46656264  .00014479  00000-0  29885-2 0  9999
2 35732  86.2341 120.4166 0071498 112.9612 247.9161 14.58700482693082
Epoch (UTC): 09 August 2022 11:11:51
Eccentricity: 0.0071498
inclination: 86.2341°
perigee height: 647 km
apogee height: 748 km
right ascension of ascending node: 120.4166°
argument of perigee: 112.9612°
revolutions per day: 14.58700482
mean anomaly at epoch: 247.9161°
orbit number at epoch: 69308

The dashed part of the orbit path shows where the satellite is in the earth's shadow,  

DLR